FW4325 Weather Reports


Display with metric or nautical units.
time (UTC)temp
F
wind
direction
speed
MPH
gust
MPH
rain 1hr
in
rain 24hr
in
rain mn
in
humidity
%
barometer
mb
20260507210105 82 66 9.0 17.0 0.00 0.00 0.00 82 1015.1
20260507210057 82 123 7.0 16.0 0.00 0.00 0.00 83 1016.1
20260507204559 82 105 8.0 17.0 0.00 0.00 0.00 83 1016.0
20260507204534 82 145 8.0 18.0 0.00 0.00 0.00 82 1014.9
20260507203103 83 84 8.0 16.0 0.00 0.00 0.00 83 1016.0
20260507203035 83 144 8.0 17.0 0.00 0.00 0.00 82 1015.0
20260507201553 83 120 9.0 17.0 0.00 0.00 0.00 82 1016.0
20260507201538 83 138 8.0 20.0 0.00 0.00 0.00 82 1014.9
20260507200053 84 170 7.0 16.0 0.00 0.00 0.00 82 1015.9
20260507200051 84 116 9.0 16.0 0.00 0.00 0.00 81 1015.0
20260507194548 84 175 9.0 17.0 0.00 0.00 0.00 81 1016.2
20260507194536 84 177 11.0 16.0 0.00 0.00 0.00 80 1015.1
20260507193101 85 85 10.0 20.0 0.00 0.00 0.00 79 1015.3
20260507193052 84 103 10.0 20.0 0.00 0.00 0.00 80 1016.2
20260507191544 85 142 10.0 18.0 0.00 0.00 0.00 80 1016.4
20260507191536 85 132 10.0 18.0 0.00 0.00 0.00 79 1015.5
20260507190141 84 158 11.0 18.0 0.00 0.00 0.00 80 1016.5
20260507190040 84 110 11.0 18.0 0.00 0.00 0.00 79 1015.5
20260507184540 85 149 6.0 17.0 0.00 0.00 0.00 79 1016.6
20260507184536 85 145 8.0 17.0 0.00 0.00 0.00 79 1015.5
20260507183043 85 130 6.0 17.0 0.00 0.00 0.00 80 1016.6
20260507183039 85 153 8.0 17.0 0.00 0.00 0.00 79 1015.5
20260507181538 85 140 10.0 16.0 0.00 0.00 0.00 78 1016.7
20260507181535 85 130 10.0 19.0 0.00 0.00 0.00 78 1015.7
20260507180041 85 134 9.0 18.0 0.00 0.00 0.00 79 1016.8
20260507174538 85 128 11.0 18.0 0.00 0.00 0.00 78 1016.1
20260507174535 85 140 11.0 18.0 0.00 0.00 0.00 79 1017.0
20260507173036 85 128 9.0 17.0 0.00 0.00 0.00 78 1016.3
20260507173034 85 126 9.0 16.0 0.00 0.00 0.00 79 1017.5
20260507171536 85 134 8.0 18.0 0.00 0.00 0.00 78 1016.5
20260507171529 85 95 9.0 16.0 0.00 0.00 0.00 79 1017.6
20260507170037 85 109 10.0 16.0 0.00 0.00 0.00 76 1016.9
20260507170027 85 82 11.0 16.0 0.00 0.00 0.00 77 1018.0
20260507164536 85 157 10.0 18.0 0.00 0.00 0.00 77 1017.0
20260507164525 85 130 9.0 16.0 0.00 0.00 0.00 77 1018.3
20260507163038 86 120 9.0 17.0 0.00 0.00 0.00 76 1017.1
20260507163024 86 138 10.0 16.0 0.00 0.00 0.00 77 1018.4
20260507161535 85 128 10.0 16.0 0.00 0.00 0.00 79 1017.3
20260507160057 84 123 10.0 17.0 0.00 0.00 0.00 79 1017.6
20260507160032 84 120 11.0 16.0 0.00 0.00 0.00 80 1018.7
20260507154537 84 148 8.0 16.0 0.00 0.00 0.00 80 1017.7
20260507154519 84 148 9.0 16.0 0.00 0.00 0.00 80 1018.8
20260507153038 84 119 8.0 15.0 0.00 0.00 0.00 80 1017.8
20260507153016 84 112 9.0 15.0 0.00 0.00 0.00 81 1018.9
20260507151537 83 94 8.0 16.0 0.00 0.00 0.00 81 1018.0
20260507151523 83 87 9.0 16.0 0.00 0.00 0.00 81 1019.0
20260507150036 81 142 7.0 13.0 0.00 0.00 0.00 84 1018.0
20260507150013 81 134 7.0 13.0 0.00 0.00 0.00 85 1019.1
20260507144545 80 92 3.0 9.0 0.00 0.00 0.00 89 1018.1
20260507144509 80 91 3.0 9.0 0.00 0.00 0.00 89 1019.0
20260507143035 81 90 6.0 15.0 0.00 0.00 0.00 87 1018.1
20260507143007 81 98 6.0 15.0 0.00 0.00 0.00 87 1019.1
20260507141540 83 123 10.0 18.0 0.00 0.00 0.00 80 1018.3
20260507141505 83 105 10.0 18.0 0.00 0.00 0.00 81 1019.2
20260507140040 84 153 10.0 16.0 0.00 0.00 0.00 80 1018.2
20260507140005 84 142 10.0 16.0 0.00 0.00 0.00 81 1019.1
20260507134536 84 158 9.0 16.0 0.00 0.00 0.00 80 1018.0
20260507134505 84 116 9.0 16.0 0.00 0.00 0.00 80 1018.9
20260507133101 83 115 7.0 13.0 0.00 0.00 0.00 83 1018.9
20260507133035 83 108 7.0 18.0 0.00 0.00 0.00 83 1018.0
20260507131617 83 136 8.0 12.0 0.00 0.00 0.00 82 1018.7
20260507131537 83 149 7.0 12.0 0.00 0.00 0.00 81 1017.9
20260507130057 82 119 8.0 13.0 0.00 0.00 0.00 82 1018.7
20260507130039 83 95 7.0 13.0 0.00 0.00 0.00 81 1017.9
20260507124554 82 144 6.0 15.0 0.00 0.00 0.00 84 1018.7
20260507124537 82 117 7.0 15.0 0.00 0.00 0.00 83 1017.7
20260507123047 82 90 5.0 12.0 0.00 0.00 0.00 86 1018.6
20260507123042 82 76 4.0 12.0 0.00 0.00 0.00 85 1017.6
20260507121544 81 161 6.0 11.0 0.00 0.00 0.00 86 1018.2
20260507121537 81 132 7.0 11.0 0.00 0.00 0.00 86 1017.3
20260507120041 80 151 5.0 11.0 0.00 0.00 0.00 88 1018.2
20260507120035 80 82 4.0 11.0 0.00 0.00 0.00 87 1017.3
20260507114538 80 96 7.0 10.0 0.00 0.00 0.00 88 1018.1
20260507114533 80 103 6.0 12.0 0.00 0.00 0.00 87 1017.2
20260507113038 79 92 7.0 11.0 0.00 0.00 0.00 89 1017.1
20260507113033 79 106 7.0 11.0 0.00 0.00 0.00 89 1017.9
20260507111543 78 126 5.0 10.0 0.00 0.00 0.00 90 1017.1
20260507111530 78 139 4.0 10.0 0.00 0.00 0.00 91 1017.8
20260507110035 78 67 4.0 10.0 0.00 0.00 0.00 91 1017.0
20260507110026 78 74 4.0 10.0 0.00 0.00 0.00 91 1017.6
20260507104535 78 74 4.0 10.0 0.00 0.00 0.00 90 1016.5
20260507104524 78 78 3.0 10.0 0.00 0.00 0.00 91 1017.3
20260507103037 78 48 3.0 8.0 0.00 0.00 0.00 90 1016.6
20260507103023 78 48 3.0 8.0 0.00 0.00 0.00 90 1017.4
20260507101538 78 107 1.0 4.0 0.00 0.00 0.00 89 1016.3
20260507101519 78 107 1.0 4.0 0.00 0.00 0.00 89 1017.2
20260507100036 78 89 1.0 6.0 0.00 0.00 0.00 88 1016.4
20260507100013 78 89 1.0 4.0 0.00 0.00 0.00 88 1017.4
20260507094540 78 55 3.0 8.0 0.00 0.00 0.00 87 1016.4
20260507094511 78 87 3.0 8.0 0.00 0.00 0.00 88 1017.1
20260507093042 78 94 1.0 6.0 0.00 0.00 0.00 87 1016.3
20260507093010 78 94 1.0 6.0 0.00 0.00 0.00 87 1017.1
20260507091539 78 75 3.0 6.0 0.00 0.00 0.00 87 1016.4
20260507091511 78 75 3.0 6.0 0.00 0.00 0.00 87 1017.1
20260507090037 78 87 3.0 7.0 0.00 0.00 0.00 86 1016.3
20260507090008 78 87 3.0 7.0 0.00 0.00 0.00 87 1017.1
20260507084539 78 81 2.0 8.0 0.00 0.00 0.00 86 1016.3
20260507084506 78 81 3.0 8.0 0.00 0.00 0.00 87 1017.1
20260507083039 78 62 3.0 8.0 0.00 0.00 0.00 87 1016.2
20260507083006 78 79 3.0 8.0 0.00 0.00 0.00 87 1017.1
20260507081538 78 71 4.0 8.0 0.00 0.00 0.00 87 1015.9
20260507081511 78 62 4.0 8.0 0.00 0.00 0.00 88 1017.0
20260507080036 78 79 3.0 9.0 0.00 0.00 0.00 87 1015.9
20260507080005 78 78 3.0 9.0 0.00 0.00 0.00 88 1016.9
20260507074536 78 81 4.0 10.0 0.00 0.00 0.00 87 1016.1
20260507074507 78 89 4.0 10.0 0.00 0.00 0.00 88 1017.0
20260507073036 79 71 5.0 9.0 0.00 0.00 0.00 87 1016.2
20260507073001 79 73 5.0 9.0 0.00 0.00 0.00 88 1017.2
20260507071602 79 90 3.0 8.0 0.00 0.00 0.00 87 1017.1
20260507071536 79 71 3.0 8.0 0.00 0.00 0.00 87 1016.3
20260507070107 79 73 3.0 8.0 0.00 0.00 0.00 87 1017.3
20260507070035 79 71 3.0 8.0 0.00 0.00 0.00 86 1016.4
20260507064558 79 73 4.0 9.0 0.00 0.00 0.00 87 1017.5
20260507064535 79 70 3.0 8.0 0.00 0.00 0.00 86 1016.5
20260507063057 79 70 3.0 7.0 0.00 0.00 0.00 87 1017.6
20260507063037 79 82 2.0 9.0 0.00 0.00 0.00 86 1016.7
20260507061554 79 69 2.0 6.0 0.00 0.00 0.00 86 1017.7
20260507061537 79 98 2.0 6.0 0.00 0.00 0.00 86 1016.8
20260507060037 79 95 4.0 8.0 0.00 0.00 0.00 85 1017.0
20260507054554 79 74 4.0 8.0 0.00 0.00 0.00 85 1018.1
20260507054540 79 89 4.0 8.0 0.00 0.00 0.00 84 1017.1
20260507053052 79 116 3.0 6.0 0.00 0.00 0.00 84 1018.5
20260507053036 79 86 3.0 6.0 0.00 0.00 0.00 84 1017.3
20260507051545 79 89 2.0 5.0 0.00 0.00 0.00 84 1018.7
20260507051535 79 89 2.0 9.0 0.00 0.00 0.00 84 1017.7
20260507050044 79 82 4.0 9.0 0.00 0.00 0.00 86 1019.2
20260507050042 79 86 5.0 9.0 0.00 0.00 0.00 85 1017.9
20260507044539 78 76 2.0 4.0 0.00 0.00 0.00 88 1019.3
20260507043035 78 105 4.0 7.0 0.00 0.00 0.00 88 1018.2
20260507041549 77 60 2.0 5.0 0.00 0.00 0.00 88 1018.4
20260507041533 77 60 2.0 5.0 0.00 0.00 0.00 89 1019.7
20260507040035 77 38 2.0 4.0 0.00 0.00 0.00 88 1018.5
20260507040029 77 38 2.0 4.0 0.00 0.00 0.00 88 1019.8
20260507034548 77 65 3.0 4.0 0.00 0.00 0.00 88 1019.8
20260507034539 77 65 2.0 5.0 0.00 0.00 0.00 87 1018.6
20260507033037 78 40 2.0 4.0 0.00 0.00 0.00 87 1018.6
20260507033031 78 40 2.0 4.0 0.00 0.00 0.00 88 1019.7
20260507031535 78 44 3.0 6.0 0.00 0.00 0.00 87 1018.7
20260507031527 78 54 3.0 5.0 0.00 0.00 0.00 88 1019.9
20260507030035 77 56 2.0 5.0 0.00 0.00 0.00 88 1018.7
20260507030027 77 56 2.0 5.0 0.00 0.00 0.00 88 1019.8
20260507024544 77 28 3.0 6.0 0.00 0.00 0.00 88 1019.6
20260507024534 77 24 3.0 6.0 0.00 0.00 0.00 88 1018.7
20260507023037 77 36 3.0 6.0 0.00 0.00 0.00 87 1018.6
20260507023025 77 36 3.0 6.0 0.00 0.00 0.00 87 1019.7
20260507021535 78 34 2.0 5.0 0.00 0.00 0.00 86 1018.6
20260507021525 78 34 2.0 5.0 0.00 0.00 0.00 87 1019.6
20260507020035 78 47 3.0 5.0 0.00 0.00 0.00 86 1018.6
20260507020025 78 47 3.0 5.0 0.00 0.00 0.00 86 1019.5
20260507014548 79 74 3.0 5.0 0.00 0.00 0.00 85 1018.5
20260507014533 79 74 2.0 5.0 0.00 0.00 0.00 86 1019.7
20260507013043 79 55 2.0 5.0 0.00 0.00 0.00 85 1018.4
20260507013020 79 55 2.0 4.0 0.00 0.00 0.00 86 1019.6
20260507011538 79 74 3.0 5.0 0.00 0.00 0.00 85 1018.3
20260507011534 79 74 3.0 5.0 0.00 0.00 0.00 85 1019.5
20260507010037 79 35 2.0 5.0 0.00 0.00 0.00 84 1018.2
20260507010020 79 35 2.0 5.0 0.00 0.00 0.00 85 1019.4
20260507004535 80 51 2.0 5.0 0.00 0.00 0.00 84 1018.0
20260507004520 80 47 2.0 5.0 0.00 0.00 0.00 84 1019.2
20260507003037 80 50 2.0 5.0 0.00 0.00 0.00 83 1017.9
20260507003019 80 32 3.0 4.0 0.00 0.00 0.00 84 1019.1
20260507001547 81 64 3.0 5.0 0.00 0.00 0.00 83 1017.9
20260507001517 81 64 3.0 5.0 0.00 0.00 0.00 84 1019.1
20260507000037 81 84 3.0 8.0 0.00 0.00 0.00 83 1017.7
20260507000017 81 84 2.0 8.0 0.00 0.00 0.00 84 1019.0
20260506234535 81 115 3.0 8.0 0.00 0.00 0.00 83 1017.5
20260506234515 81 115 4.0 8.0 0.00 0.00 0.00 83 1018.7
20260506233040 82 140 4.0 8.0 0.00 0.00 0.00 83 1017.5
20260506233015 82 140 4.0 8.0 0.00 0.00 0.00 83 1018.7
20260506231543 82 82 4.0 11.0 0.00 0.00 0.00 82 1017.3
20260506231515 81 78 4.0 11.0 0.00 0.00 0.00 83 1018.5
20260506230039 82 96 5.0 9.0 0.00 0.00 0.00 82 1017.1
20260506230015 82 80 5.0 9.0 0.00 0.00 0.00 82 1018.3
20260506224536 82 98 5.0 8.0 0.00 0.00 0.00 82 1017.0
20260506224514 82 96 5.0 8.0 0.00 0.00 0.00 82 1018.3
20260506223036 82 88 4.0 9.0 0.00 0.00 0.00 81 1016.8
20260506223008 82 113 3.0 8.0 0.00 0.00 0.00 82 1018.1